Location: Prague
(50.0830°N, 14.4670°E)
Time: 23:26:33
(UTC+02:00)

N. Korean satellite - Pass Details

Date: 30 September 2021
Orbit: 450 x 495 km, 97.3° (Epoch: 23 October)

Event Time Altitude Azimuth Distance (km) Brightness Sun altitude
Rises 06:17:13 0° 15° (NNE) 2,541 10.5 -7.8°
Reaches altitude 10° 06:19:17 10° 18° (NNE) 1,665 9.6 -7.5°
Maximum altitude 06:22:51 65° 102° (ESE) 537 7.1 -6.9°
Drops below altitude 10° 06:26:26 10° 184° (S) 1,674 9.2 -6.3°
Sets 06:28:31 0° 188° (S) 2,556 10.1 -6.0°
